Location: Arroyo Retuerta
(40.5469°N, 4.3534°W)
Time: 05:13:21
(UTC+00:00)

Meteor 1-21 - Pass Details

Date: 01 June 2020
Orbit: 843 x 889 km, 81.2° (Epoch: 05 July)

Event Time Altitude Azimuth Distance (km) Brightness Sun altitude
Exits shadow 22:50:13 47° 209° (SSW) 1,119 4.5 -24.2°
Maximum altitude 22:51:52 74° 280° (W) 889 4.3 -24.3°
Drops below altitude 10° 22:57:29 10° 6° (N) 2,479 7.5 -24.7°
Sets 22:59:55 0° 8° (N) 3,415 8.4 -24.8°
